Dewpoint
24 25 26 27 27 26 26 26 26 26 25 26 26 26 26 28 28 28 30 29 28 26 26 26 26 26 27 29 30 30 31 31 32 33 33 34 34 35 35 35 35 35 35 35 36 36 36 36 36 37 37 37 37 37 38 38 38 38 38 39 39 39 39 39 39 39 38 38 38 38 38 37 37 37 36 37 37 37 37 37 38 38 38 38 39 39
25 26 26 27 26 26 25 26 26 26 25 26 26 26 26 26 26 27 29 29 28 27 26 26 26 26 26 28 29 30 31 31 32 33 33 34 34 35 35 35 35 35 35 35 35 36 36 36 36 36 36 36 37 37 37 37 37 37 37 38 38 38 38 38 38 38 38 37 37 37 37 36 36 36 36 36 37 37 37 37 38 38 38 39 39 40
25 26 26 26 26 26 25 25 25 26 26 26 26 26 26 26 26 26 26 26 27 28 27 26 26 25 25 27 29 30 31 31 32 33 33 34 34 35 35 35 35 35 35 35 35 35 35 35 36 36 36 36 36 36 36 37 37 37 37 37 37 37 37 37 37 37 37 36 36 36 35 35 35 36 36 37 37 37 37 37 38 38 38 39 39 40
26 25 25 26 26 26 26 25 26 26 27 27 27 27 26 26 26 25 25 25 25 26 26 26 25 25 25 26 29 30 31 32 32 33 33 34 34 34 34 35 35 35 35 35 35 35 35 35 35 35 35 36 36 36 36 36 36 36 36 36 36 36 36 36 36 36 36 35 35 35 35 35 35 36 36 36 37 37 37 37 37 38 38 39 39 40
25 25 25 26 26 25 26 26 26 26 27 27 27 26 26 26 26 25 25 25 25 25 25 25 25 25 26 26 28 30 31 32 32 33 33 33 33 34 34 34 34 34 34 34 34 34 34 35 35 35 35 35 35 36 36 36 36 36 36 36 36 36 36 36 36 35 35 35 35 35 35 35 35 36 36 36 36 37 37 37 37 37 38 39 39 40
25 26 26 26 25 25 25 26 26 26 26 26 26 26 26 27 26 26 26 25 25 26 26 26 26 26 26 26 28 30 31 31 32 32 32 33 33 33 33 33 33 33 33 33 33 34 34 34 35 35 35 35 35 35 35 35 36 36 36 36 36 35 35 35 35 35 35 35 35 35 35 35 35 35 35 36 36 36 37 37 37 37 38 38 39 39
26 26 26 26 26 26 25 25 25 25 25 25 25 25 26 26 27 27 27 27 26 26 26 26 26 26 26 26 28 29 30 31 31 31 32 32 32 32 32 32 32 32 32 32 33 33 34 34 34 34 35 35 35 35 35 35 35 35 35 35 35 35 35 35 35 35 35 35 35 35 35 35 35 35 35 35 36 36 37 37 37 37 38 38 38 39
26 26 26 26 25 25 24 24 25 25 25 25 24 24 24 24 25 26 29 29 28 28 26 26 26 26 25 26 26 27 28 28 28 29 29 30 30 30 31 31 31 31 32 32 32 33 33 33 34 34 34 34 35 35 35 35 35 35 35 35 35 35 35 35 35 35 35 35 35 35 35 35 35 35 35 35 35 35 36 36 37 37 38 38 38 38
26 25 25 25 25 24 23 23 25 26 26 25 25 24 23 23 24 25 26 26 27 27 26 25 25 25 25 25 26 26 27 27 26 26 26 26 27 28 30 30 31 31 31 32 32 32 33 33 33 33 34 34 34 34 35 35 35 35 35 35 35 35 35 35 35 35 35 35 35 35 35 35 35 35 35 35 35 35 35 36 36 37 37 38 38 38
26 25 24 25 24 24 23 23 24 26 27 26 26 25 24 23 22 23 23 24 25 26 25 25 25 25 25 26 26 26 27 27 28 28 28 28 28 29 30 30 30 30 31 31 31 32 32 32 32 33 33 33 34 34 34 34 34 34 34 34 34 34 34 34 34 35 35 35 35 35 35 35 35 34 34 34 35 35 35 35 35 36 36 37 37 38
25 25 24 24 24 24 24 24 25 26 27 26 26 25 25 23 23 23 22 23 24 24 24 25 25 25 25 26 26 26 26 26 27 28 29 29 29 29 29 29 29 29 30 30 30 30 31 31 32 32 32 32 33 33 33 33 33 33 33 33 33 34 34 34 34 34 34 34 34 35 35 34 34 34 34 34 34 34 34 34 35 35 35 36 36 37
24 24 24 24 24 25 25 25 26 26 26 25 24 23 23 23 24 24 23 23 23 23 24 24 25 26 26 26 26 25 26 25 25 25 26 26 27 27 26 26 26 27 28 29 29 30 30 30 30 31 31 31 31 32 32 31 32 32 32 33 33 33 33 33 34 34 34 34 34 35 35 34 34 34 34 34 34 34 34 34 34 34 35 35 35 36
25 25 25 25 25 25 24 24 25 24 24 23 22 21 22 23 24 24 24 23 23 23 24 24 25 26 26 26 26 26 25 24 24 24 23 24 24 24 23 23 23 24 24 25 25 26 28 29 30 30 30 30 30 31 31 31 31 32 32 32 33 33 33 33 33 33 34 34 34 34 34 34 34 34 34 34 34 34 34 34 34 34 34 35 35 36
25 25 25 25 25 24 24 24 23 22 22 22 22 23 23 24 24 24 24 23 23 24 25 25 25 25 26 26 26 26 25 24 23 23 23 23 23 24 23 22 22 22 23 23 23 25 27 28 28 28 29 29 30 30 30 30 31 31 32 32 32 32 33 33 33 33 34 34 34 34 34 34 34 34 34 34 34 34 34 34 34 34 34 35 35 35
25 25 25 25 25 24 24 23 23 22 22 22 23 23 24 24 24 23 23 23 24 25 25 25 24 24 24 25 26 26 25 24 23 22 22 22 23 24 24 23 22 23 23 23 23 25 27 27 26 26 26 27 28 29 29 30 30 31 31 32 32 32 32 32 33 33 33 34 34 34 34 34 34 34 34 34 34 34 34 34 34 34 35 35 35 35
26 26 25 25 24 24 24 23 23 23 23 23 23 23 23 23 23 23 23 24 24 25 25 24 24 23 24 25 26 26 26 24 23 22 22 22 23 24 25 23 23 23 24 24 24 25 26 25 25 24 24 26 28 29 29 30 30 31 31 31 32 32 32 32 32 33 33 33 33 33 33 34 34 34 34 34 34 34 34 34 34 35 35 35 35 35
26 25 25 24 24 24 24 24 23 23 23 23 23 23 23 24 24 25 25 25 25 25 25 24 24 23 23 24 25 26 26 24 23 23 23 22 23 24 25 24 24 23 24 24 24 24 24 24 24 24 24 26 28 29 29 30 30 30 31 31 31 31 32 32 32 32 32 33 33 33 33 34 34 34 34 34 34 34 34 34 35 35 35 35 35 35
26 25 25 24 23 23 23 23 23 23 24 23 24 24 25 26 26 26 26 26 26 25 25 25 24 23 23 22 23 24 27 25 24 24 24 23 24 24 25 25 25 24 24 24 24 24 24 24 24 24 25 27 28 29 29 29 30 30 30 31 31 31 31 32 32 32 32 33 33 33 33 34 34 34 34 34 34 34 34 34 35 35 35 35 35 35
26 25 24 23 23 23 23 23 23 23 23 24 25 26 26 27 27 26 26 26 25 25 25 24 24 23 23 22 23 24 26 26 25 25 24 24 24 24 25 25 25 25 24 23 23 23 23 24 26 27 28 28 28 28 29 29 30 30 30 30 31 31 31 31 31 32 32 32 33 33 33 33 33 33 33 33 34 34 34 34 35 35 35 35 35 35
25 24 23 23 23 23 23 23 23 24 26 27 28 28 27 27 26 26 25 25 25 25 25 24 24 23 23 23 23 25 26 26 26 25 24 24 24 24 25 25 25 24 23 22 23 23 22 23 24 25 26 27 27 28 28 29 29 30 30 30 30 30 31 31 31 31 32 32 32 32 33 33 33 33 33 33 33 34 34 34 34 35 35 35 35 35
25 24 24 24 24 23 23 24 25 27 29 30 29 28 27 26 26 25 25 25 25 24 24 24 23 23 24 24 24 24 26 26 25 24 24 24 24 24 24 24 23 22 21 21 21 21 21 21 21 22 24 26 27 27 28 28 29 29 30 30 30 30 30 30 31 31 31 31 32 32 32 32 32 32 33 33 33 33 34 34 34 34 34 34 34 35
26 25 25 25 26 26 26 28 30 30 30 30 29 27 26 26 25 25 25 25 24 24 24 24 24 24 25 25 25 25 26 26 25 25 24 23 23 23 23 23 22 21 20 19 19 20 20 20 20 21 24 26 27 27 28 28 29 29 29 30 30 30 30 30 30 31 31 31 31 31 32 32 32 32 32 32 33 33 33 34 34 34 34 34 34 34
26 26 26 28 29 30 31 31 30 30 29 29 28 27 27 26 26 25 25 25 25 25 25 25 25 26 26 25 25 25 26 26 26 25 24 23 22 22 22 21 20 19 18 18 18 18 19 19 19 21 23 26 27 27 27 28 28 29 29 29 29 30 30 30 30 30 31 31 31 31 31 31 32 32 32 32 32 33 33 33 33 33 33 33 34 34
28 29 30 32 32 32 31 30 29 28 28 28 27 27 28 28 27 26 26 26 26 26 26 26 26 25 25 25 24 24 25 25 25 25 24 22 22 21 21 20 19 19 18 18 18 18 19 19 19 20 21 25 26 27 27 28 28 28 29 29 29 29 29 30 30 30 30 30 31 31 31 31 31 32 32 32 32 32 32 33 33 33 33 33 33 33
29 29 30 30 30 31 30 30 29 29 29 28 28 28 28 28 27 27 26 26 26 26 25 24 24 23 23 23 23 23 23 24 25 24 23 21 21 21 20 20 19 18 18 18 19 19 19 18 19 20 21 23 25 26 27 27 28 28 28 28 28 29 29 29 30 30 30 30 30 30 31 31 31 31 32 32 32 32 32 32 32 32 33 33 33 33
29 29 30 30 31 31 32 32 31 31 31 30 29 28 27 27 27 26 26 25 25 24 23 23 22 22 22 22 21 21 22 24 24 23 22 21 20 20 20 20 19 18 18 19 19 19 19 19 19 19 20 21 23 26 26 27 27 27 27 28 28 28 29 29 29 29 30 30 30 30 30 31 31 31 31 32 32 32 32 32 32 32 33 33 33 33
30 30 31 31 32 32 32 32 32 32 32 31 30 29 28 27 26 25 24 24 23 23 22 22 21 21 21 21 21 21 21 22 22 21 21 21 20 19 20 20 19 19 19 19 19 20 21 20 20 20 20 20 21 24 26 26 26 26 27 27 27 28 28 28 29 29 29 30 30 30 30 31 31 31 31 31 31 32 32 32 32 33 33 33 32 32
31 31 31 31 32 32 32 32 32 32 31 31 31 30 29 27 25 24 23 23 23 22 22 21 21 20 20 20 20 20 21 21 21 21 21 21 20 19 19 19 19 19 19 19 20 21 22 21 21 20 20 20 21 22 24 25 26 26 26 27 27 27 28 28 28 29 29 30 30 30 30 30 30 31 31 31 31 31 32 32 32 32 32 32 31 31
30 30 31 31 31 31 31 30 30 30 30 30 30 30 29 26 25 23 23 23 22 22 21 21 21 20 20 20 20 20 20 19 20 21 21 21 20 19 20 19 19 19 19 20 20 21 21 21 20 20 19 20 20 21 21 23 24 25 26 26 26 27 27 28 28 28 29 29 29 30 30 30 30 30 30 31 31 31 31 31 31 31 31 31 31 31
29 29 29 29 29 28 28 27 27 28 28 29 29 29 28 26 25 24 24 23 23 22 21 21 21 20 20 20 20 19 19 19 20 21 21 21 20 20 20 20 20 20 20 20 19 19 18 19 19 19 19 20 20 20 20 21 22 23 23 24 25 26 26 27 27 28 28 29 29 29 30 30 30 30 30 30 30 30 30 31 31 30 30 30 31 31
26 26 26 25 25 26 26 26 26 26 26 27 27 27 27 26 25 25 24 24 23 22 21 21 21 21 21 20 19 18 18 19 21 22 22 21 20 20 20 21 21 21 21 20 19 18 17 18 18 19 20 20 20 20 20 21 21 21 21 22 23 24 26 26 26 27 28 28 28 29 29 29 29 30 30 30 30 30 30 30 30 30 30 30 30 31
25 25 24 24 23 24 24 24 24 24 25 25 26 26 26 26 25 25 24 24 23 22 22 21 21 21 21 20 19 19 19 20 21 23 23 21 21 21 21 21 21 21 21 21 20 19 17 17 18 18 19 20 20 20 20 21 21 21 21 21 21 22 25 26 26 26 26 27 28 28 28 29 29 29 29 29 30 30 30 30 30 30 29 30 30 30
25 24 23 23 23 23 23 23 23 24 24 24 24 24 25 25 25 25 24 24 23 23 22 22 21 21 21 21 20 20 20 21 22 23 24 22 22 21 21 21 21 21 21 21 21 20 19 18 18 18 19 19 19 20 20 21 21 21 21 21 21 21 23 24 25 25 25 26 26 27 28 28 28 29 29 29 29 29 30 30 30 30 29 29 30 30
24 24 23 23 23 23 23 24 24 24 24 24 24 24 24 24 25 25 24 24 24 24 23 23 22 22 21 21 21 21 21 21 22 24 25 23 22 22 22 21 21 21 21 21 21 20 20 19 19 18 18 19 19 19 20 20 21 21 21 21 21 21 22 22 23 23 24 24 25 25 26 26 27 28 28 28 29 29 29 30 30 30 30 30 30 30
24 23 23 23 23 24 24 25 25 25 25 24 24 24 24 24 24 25 25 25 24 24 24 24 23 23 22 22 21 21 21 21 22 24 25 24 23 22 22 22 22 21 21 21 21 20 19 19 19 19 18 18 18 19 19 20 21 21 21 21 21 21 21 22 22 22 23 23 23 23 24 24 25 26 26 27 28 29 29 30 30 30 30 30 30 30
24 24 24 24 24 24 24 24 24 24 24 24 24 24 24 24 24 24 25 25 25 25 26 26 25 25 24 24 23 22 21 22 23 24 25 25 24 24 23 23 23 23 22 21 21 21 20 19 20 20 19 18 18 18 18 19 20 21 21 21 21 21 22 22 22 22 22 22 22 23 23 23 24 25 25 27 28 29 29 29 30 30 30 30 30 30
24 24 24 24 24 24 23 23 23 24 24 23 24 24 24 24 25 25 25 27 27 27 26 27 27 27 27 26 26 25 24 24 24 25 25 26 25 25 24 24 24 24 23 22 21 21 20 20 19 19 19 18 17 17 18 19 20 20 20 21 21 21 21 22 22 22 22 22 23 23 23 24 24 25 26 27 28 28 28 29 29 29 30 30 30 30
23 23 23 23 23 23 23 23 23 23 23 23 23 24 24 25 26 26 26 26 27 27 27 26 26 27 29 28 28 27 26 26 25 25 26 27 26 26 26 25 25 25 24 23 23 22 21 20 19 18 18 17 18 18 19 19 19 19 20 20 21 21 21 21 22 22 22 23 23 24 24 24 24 25 25 26 26 25 26 26 27 28 29 29 29 30
23 23 22 23 23 22 22 22 22 22 23 23 23 24 24 25 25 26 26 26 26 26 26 26 26 26 28 28 29 29 28 28 28 28 28 29 28 27 26 26 26 25 25 25 24 23 22 21 20 19 18 18 18 19 19 19 19 19 20 20 21 21 21 21 22 22 22 22 23 24 24 24 24 24 24 24 24 24 24 24 25 26 27 27 27 29
23 22 22 23 23 22 22 22 22 22 22 23 24 24 25 25 25 25 25 26 26 26 26 26 26 26 27 28 28 29 29 30 30 30 29 29 29 28 27 26 26 26 26 25 25 24 23 22 21 21 21 20 19 19 19 19 19 20 21 20 20 20 21 21 21 22 22 22 22 23 23 23 23 23 23 24 24 24 24 24 25 26 26 26 26 27
23 23 23 22 22 22 22 23 23 23 24 24 24 25 25 25 25 25 25 26 26 26 26 26 26 26 27 27 27 27 28 29 29 29 29 29 29 29 28 27 26 26 26 26 25 25 24 23 22 22 21 21 21 20 20 20 21 21 22 21 20 20 21 21 22 22 22 22 22 22 23 23 23 23 23 23 24 24 24 25 25 26 27 27 27 27
23 23 22 22 22 22 22 23 24 24 25 25 25 25 25 25 25 25 25 25 26 26 26 26 26 26 26 26 26 27 27 28 28 29 30 30 30 29 29 28 27 27 26 26 26 25 25 24 23 22 22 21 21 21 20 20 21 21 21 21 21 21 21 21 21 21 21 21 22 22 23 23 22 22 23 23 24 25 26 26 27 28 28 27 27 27
23 23 23 23 23 23 24 24 25 25 25 25 25 25 25 25 25 26 26 26 26 26 26 26 26 26 26 26 26 26 27 27 28 28 29 29 30 29 29 28 28 28 27 26 26 25 25 25 24 23 23 22 22 21 21 21 21 21 21 21 21 21 20 20 20 21 21 22 22 22 22 22 22 23 23 24 25 26 26 27 27 28 27 26 26 26
24 23 24 24 24 24 25 25 25 25 25 25 25 25 25 25 26 26 26 26 26 26 26 26 26 26 26 26 26 26 26 26 27 28 28 29 29 30 29 29 28 28 28 27 26 26 25 25 24 24 23 23 22 22 21 21 20 20 20 21 21 21 20 20 21 21 21 22 22 22 23 23 23 24 24 25 25 25 26 25 25 25 26 26 26 26
24 24 24 24 24 24 24 24 24 24 24 24 24 24 25 25 26 26 26 26 26 26 26 26 26 26 26 26 25 25 25 26 26 26 27 28 29 30 30 28 28 27 27 27 27 26 26 25 24 24 23 23 23 22 21 21 21 21 21 21 21 21 21 21 22 22 22 22 22 23 23 24 25 25 25 24 24 24 24 24 24 24 25 25 26 26
24 24 24 24 24 24 24 24 24 24 24 24 24 25 25 26 26 26 26 26 26 26 26 27 27 26 26 26 25 25 25 25 25 25 25 26 27 28 28 28 27 27 26 26 26 26 26 25 25 24 24 23 22 22 21 21 21 21 21 21 21 21 21 22 22 22 22 22 23 23 24 25 25 25 24 23 23 23 23 24 24 24 25 25 25 26
24 24 24 24 24 24 24 24 24 24 24 24 25 25 25 25 26 26 26 26 26 27 27 27 27 26 26 26 26 25 25 25 25 25 25 26 26 26 26 27 27 27 26 26 26 26 26 26 26 25 24 23 22 21 21 21 21 21 21 21 21 21 21 21 22 22 23 23 24 24 25 26 25 24 24 23 23 23 23 23 24 24 25 25 26 26
24 24 24 24 24 24 24 24 24 24 24 24 24 25 25 25 26 26 26 26 27 27 27 27 27 26 26 26 26 26 26 26 26 26 26 26 26 26 26 26 26 26 27 27 27 27 27 27 27 26 26 25 23 22 21 21 21 21 21 22 22 22 22 22 23 23 24 24 25 26 26 25 24 24 23 23 23 22 22 23 23 24 25 25 26 26
24 24 24 24 24 24 24 24 24 24 24 24 24 25 25 26 26 27 26 27 27 27 27 27 27 26 26 26 26 26 26 26 26 26 25 25 25 26 26 26 26 26 26 26 26 26 26 27 27 27 27 26 25 24 23 22 22 22 22 22 23 23 23 23 23 23 24 24 25 26 26 25 24 24 24 23 23 22 22 22 23 24 25 25 26 26
24 24 24 24 24 24 24 24 24 24 24 25 25 25 25 26 26 26 27 27 27 27 27 27 27 26 26 26 26 26 26 26 26 25 25 25 25 25 25 26 25 25 25 25 25 25 25 25 26 26 27 27 26 25 23 23 22 22 22 22 22 22 22 22 23 23 24 24 25 26 26 25 25 24 24 23 23 22 22 23 23 24 24 25 26 26
24 24 24 24 24 24 24 24 24 24 24 25 25 25 26 26 26 27 27 27 27 27 27 27 27 27 26 26 26 26 26 26 26 26 26 26 26 26 26 26 25 25 24 24 23 23 22 21 21 22 23 25 26 25 23 22 21 21 21 22 22 22 22 22 23 23 24 24 24 24 25 24 24 23 23 23 23 22 22 23 23 23 24 25 26 26